Hourly Data Report for October 10, 2016

All times are specified in Local Standard Time (LST). Add 1 hour to adjust for Daylight Saving Time where and when it is observed.

KAMLOOPS A
BRITISH COLUMBIA

50°42'09.000" N
120°26'55.000" W
345.30 m
1163781
71887
YKA

Download Data

Hourly Data (October 2016)
Hourly Data Report for October 10, 2016
Temp Definition
°C
Dew Point Temp Definition
°C
Rel Hum Definition
%
Wind Dir Definition
10's deg

Wind Spd Definition
km/h
Visibility Definition
km
Stn Press Definition
kPa
Hmdx Definition


Wind Chill Definition


Weather Definition


TIME
00:00 Legend Double Dagger 6.0 -1.9 57 29 17 64.4 97.74     LegendNANA
01:00 Legend Double Dagger 5.8 -2.8 54 28 19 64.4 97.76     Cloudy
02:00 Legend Double Dagger 5.3 -2.3 58 28 11 64.4 97.76     LegendNANA
03:00 Legend Double Dagger 5.2 -2.9 56 30 16 64.4 97.78     LegendNANA
04:00 Legend Double Dagger 5.5 -3.8 51 29 26 64.4 97.76     Cloudy
05:00 Legend Double Dagger 5.0 -3.1 56 30 23 64.4 97.81     LegendNANA
06:00 Legend Double Dagger 5.1 -2.7 57 29 25 64.4 97.84     LegendNANA
07:00 Legend Double Dagger 5.2 -2.2 59 28 39 64.4 97.83     Rain Showers
08:00 Legend Double Dagger 5.6 -1.3 61 28 18 64.4 97.93     LegendNANA
09:00 Legend Double Dagger 5.9 -1.7 58 27 23 64.4 97.98     LegendNANA
10:00 Legend Double Dagger 6.1 -2.0 56 27 25 64.4 98.03     Cloudy
11:00 Legend Double Dagger 6.5 -2.1 54 27 29 64.4 98.07     LegendNANA
12:00 Legend Double Dagger 6.8 -1.9 54 27 28 64.4 98.07     LegendNANA
13:00 Legend Double Dagger 7.0 -1.9 53 27 32 64.4 98.08     Mostly Cloudy
14:00 Legend Double Dagger 7.2 -2.0 52 27 25 64.4 98.10     LegendNANA
15:00 Legend Double Dagger 7.4 -1.8 52 28 15 64.4 98.12     LegendNANA
16:00 Legend Double Dagger 7.4 -2.6 49 28 15 64.4 98.13     Mostly Cloudy
17:00 Legend Double Dagger 7.2 -2.3 51 27 18 64.4 98.14     LegendNANA
18:00 Legend Double Dagger 7.0 -2.4 51 26 20 64.4 98.19     LegendNANA
19:00 Legend Double Dagger 6.2 -1.9 56 29 13 64.4 98.22     Mostly Cloudy
20:00 Legend Double Dagger 6.0 -2.4 55 32 9 64.4 98.23     LegendNANA
21:00 Legend Double Dagger 4.1 -3.0 60 25 13 64.4 98.26     LegendNANA
22:00 Legend Double Dagger 3.7 -2.1 66 25 13 64.4 98.31     Mainly Clear
23:00 Legend Double Dagger 3.4 -2.2 67 24 10 64.4 98.36     LegendNANA

Notes on Data Quality.

Legend

  • E = Estimated
  • M = Missing
  • NA = Not Available
  • ‡ = Partner data that is not subject to review by the National Climate Archives
Date modified: